CW9244 Weather Reports


Display with metric or nautical units.
time (UTC)temp
F
wind
direction
speed
MPH
gust
MPH
rain 1hr
in
rain 24hr
in
rain mn
in
humidity
%
barometer
mb
20260504223711 60 202 0.0 2.0 0.00 0.00 0.00 61 1026.3
20260504222713 60 225 0.0 1.0 0.00 0.00 0.00 60 1026.5
20260504221812 60 184 1.0 3.0 0.00 0.00 0.00 60 1026.4
20260504220815 61 159 2.0 8.0 0.00 0.00 0.00 58 1026.5
20260504215812 61 177 1.0 2.0 0.00 0.00 0.00 58 1026.7
20260504214813 62 167 0.0 3.0 0.00 0.00 0.00 57 1026.7
20260504213911 62 206 1.0 2.0 0.00 0.00 0.00 56 1026.7
20260504212914 63 218 1.0 3.0 0.00 0.00 0.00 54 1026.7
20260504205914 64 172 1.0 3.0 0.00 0.00 0.00 53 1026.5
20260504205012 65 211 0.0 3.0 0.00 0.00 0.00 52 1026.7
20260504204914 65 214 0.0 2.0 0.00 0.00 0.00 52 1026.6
20260504203912 65 195 1.0 3.0 0.00 0.00 0.00 51 1026.5
20260504201913 67 196 3.0 5.0 0.00 0.00 0.00 47 1026.5
20260504200913 68 175 2.0 5.0 0.00 0.00 0.00 44 1026.5
20260504195913 69 170 1.0 3.0 0.00 0.00 0.00 45 1026.5
20260504192012 73 247 1.0 3.0 0.00 0.00 0.00 38 1026.5
20260504191111 73 180 1.0 2.0 0.00 0.00 0.00 38 1026.6
20260504190113 73 180 2.0 5.0 0.00 0.00 0.00 38 1026.8
20260504185212 73 180 2.0 4.0 0.00 0.00 0.00 38 1026.8
20260504184213 73 180 1.0 3.0 0.00 0.00 0.00 36 1027.0
20260504183313 72 180 1.0 2.0 0.00 0.00 0.00 36 1027.1
20260504181314 72 157 1.0 2.0 0.00 0.00 0.00 37 1027.3
20260504180314 72 157 1.0 5.0 0.00 0.00 0.00 38 1027.3
20260504174315 71 172 1.0 4.0 0.00 0.00 0.00 37 1027.5
20260504173316 71 157 1.0 4.0 0.00 0.00 0.00 38 1027.4
20260504172313 71 80 0.0 1.0 0.00 0.00 0.00 37 1027.6
20260504171313 70 183 1.0 4.0 0.00 0.00 0.00 38 1027.7
20260504170311 70 224 0.0 3.0 0.00 0.00 0.00 36 1027.8
20260504160413 69 202 0.0 1.0 0.00 0.00 0.00 34 1028.4
20260504150512 69 180 1.0 6.0 0.00 0.00 0.00 34 1028.9
20260504140612 66 292 2.0 5.0 0.00 0.00 0.00 38 1029.2
20260504100113 44 225 0.0 1.0 0.00 0.00 0.00 70 1029.6
20260504081112 44 225 0.0 0.0 0.00 0.00 0.00 67 1028.9
20260504080113 44 225 0.0 0.0 0.00 0.00 0.00 67 1028.8
20260504070312 46 292 0.0 0.0 0.00 0.00 0.00 66 1028.4
20260504050611 42 292 0.0 0.0 0.00 0.00 0.00 69 1028.1
20260504045615 42 292 0.0 0.0 0.00 0.00 0.00 69 1028.1
20260504044612 42 292 0.0 0.0 0.00 0.00 0.00 68 1028.1
20260504042612 42 292 0.0 0.0 0.00 0.00 0.00 65 1028.1
20260504041612 42 292 0.0 0.0 0.00 0.00 0.00 65 1028.1
20260504040612 43 292 0.0 0.0 0.00 0.00 0.00 65 1028.1
20260504035615 43 292 0.0 0.0 0.00 0.00 0.00 63 1028.1
20260504034617 43 292 0.0 0.0 0.00 0.00 0.00 63 1028.1
20260504033715 43 292 0.0 0.0 0.00 0.00 0.00 62 1028.0
20260504031719 43 292 0.0 0.0 0.00 0.00 0.00 62 1028.0
20260504030716 43 292 0.0 0.0 0.00 0.00 0.00 61 1027.9
20260504025719 43 292 0.0 0.0 0.00 0.00 0.00 64 1027.9
20260504024715 44 292 0.0 0.0 0.00 0.00 0.00 63 1028.0
20260504023718 44 292 0.0 0.0 0.00 0.00 0.00 60 1028.0
20260504021717 45 292 0.0 0.0 0.00 0.00 0.00 57 1027.9
20260504020815 45 292 0.0 0.0 0.00 0.00 0.00 55 1027.9
20260504015818 46 292 0.0 0.0 0.00 0.00 0.00 54 1027.9
20260504014817 46 292 0.0 0.0 0.00 0.00 0.00 52 1028.0
20260504011916 48 292 0.0 0.0 0.00 0.00 0.00 48 1027.7
20260504011016 48 292 0.0 0.0 0.00 0.00 0.00 47 1027.7
20260504010017 49 292 0.0 0.0 0.00 0.00 0.00 48 1027.6
20260504005116 50 292 0.0 0.0 0.00 0.00 0.00 46 1027.4
20260504004116 51 292 0.0 0.0 0.00 0.00 0.00 44 1027.3
20260504003116 51 292 0.0 0.0 0.00 0.00 0.00 42 1027.2
20260504002215 51 292 0.0 0.0 0.00 0.00 0.00 39 1027.0
20260504001219 52 292 0.0 0.0 0.00 0.00 0.00 38 1027.0
20260504000317 52 292 0.0 0.0 0.00 0.00 0.00 38 1026.8
20260503235317 53 292 0.0 0.0 0.00 0.00 0.00 37 1026.8
20260503234317 54 292 0.0 0.0 0.00 0.00 0.00 36 1026.7
20260503233317 55 292 0.0 0.0 0.00 0.00 0.00 34 1026.5
20260503232317 56 292 0.0 1.0 0.00 0.00 0.00 32 1026.4
20260503231317 56 312 2.0 3.0 0.00 0.00 0.00 31 1026.3
20260503225419 57 304 1.0 4.0 0.00 0.00 0.00 33 1026.1
20260503224417 57 315 2.0 6.0 0.00 0.00 0.00 33 1026.1